Powrót do katalogu

COSMOS 1247

AktywnyNawigacjaHEO
NORAD 12303·PAYLOAD·🇷🇺 Russia

Wystrzelony Feb 19, 1981 z Plesetsk Cosmodrome

Loading…

Następne Przeloty (najbliższe 24 godziny)

TLE

ŚwieżeSource: Space-Track

Epoka: Sep 9, 2026, 13:46 UTC

1 12303U 81016A   26252.57379288  .00000080  00000-0  00000-0 0  9999
2 12303  69.3072 349.6926 6209726 336.3168   4.4896  2.02487979336886

Śledź COSMOS 1247 w czasie rzeczywistym z AllMySat

Download on the App Store